TimeCDT,TemperatureF,Dew PointF,Humidity,Sea Level PressureIn,VisibilityMPH,Wind Direction,Wind SpeedMPH,Gust SpeedMPH,PrecipitationIn,Events,Conditions,WindDirDegrees,DateUTC
12:53 AM,19.9,12.9,74,30.19,10.0,NNW,13.8,-,N/A,,Clear,340,2013-03-24 05:53:00
1:53 AM,18.0,10.9,74,30.19,10.0,NW,12.7,-,N/A,,Clear,320,2013-03-24 06:53:00
2:53 AM,18.0,10.9,74,30.17,10.0,NNW,12.7,-,N/A,,Clear,330,2013-03-24 07:53:00
3:53 AM,19.9,12.0,71,30.17,10.0,NNW,13.8,-,N/A,,Clear,330,2013-03-24 08:53:00
4:53 AM,19.9,10.9,68,30.18,10.0,NNW,11.5,-,N/A,,Clear,340,2013-03-24 09:53:00
5:53 AM,18.0,9.0,68,30.19,10.0,NW,9.2,-,N/A,,Clear,310,2013-03-24 10:53:00
6:53 AM,15.1,6.1,68,30.24,10.0,WNW,9.2,-,N/A,,Clear,300,2013-03-24 11:53:00
7:53 AM,15.1,6.1,68,30.27,10.0,NW,9.2,-,N/A,,Clear,310,2013-03-24 12:53:00
8:53 AM,17.1,7.0,65,30.28,10.0,North,5.8,-,N/A,,Clear,10,2013-03-24 13:53:00
9:53 AM,21.9,10.0,60,30.28,10.0,North,10.4,-,N/A,,Clear,360,2013-03-24 14:53:00
10:53 AM,25.0,12.0,58,30.27,10.0,North,11.5,-,N/A,,Clear,10,2013-03-24 15:53:00
11:53 AM,27.0,14.0,58,30.28,10.0,Calm,Calm,-,0.01,,Clear,0,2013-03-24 16:53:00
12:53 PM,28.9,17.1,61,30.25,10.0,North,4.6,-,0.01,,Clear,360,2013-03-24 17:53:00
1:53 PM,30.0,17.1,59,30.23,10.0,Calm,Calm,-,N/A,,Clear,0,2013-03-24 18:53:00
2:53 PM,32.0,16.0,52,30.19,10.0,Calm,Calm,-,N/A,,Clear,0,2013-03-24 19:53:00
3:53 PM,35.1,17.1,48,30.14,10.0,Variable,5.8,-,N/A,,Clear,0,2013-03-24 20:53:00
4:53 PM,36.0,16.0,44,30.12,10.0,ESE,4.6,-,N/A,,Clear,120,2013-03-24 21:53:00
5:53 PM,37.9,16.0,41,30.11,10.0,East,6.9,-,N/A,,Clear,80,2013-03-24 22:53:00
6:53 PM,37.4,15.8,41,30.06,10.0,ENE,12.7,-,N/A,,Scattered Clouds,70,2013-03-24 23:53:00
7:53 PM,35.1,17.1,48,30.16,10.0,ENE,11.5,-,N/A,,Mostly Cloudy,70,2013-03-25 00:53:00
8:53 PM,32.0,19.0,59,30.19,10.0,ENE,6.9,-,N/A,,Overcast,70,2013-03-25 01:53:00
9:53 PM,32.0,19.9,61,30.22,10.0,ENE,6.9,-,N/A,,Overcast,70,2013-03-25 02:53:00
10:53 PM,32.0,19.9,61,30.25,10.0,NE,16.1,-,N/A,,Overcast,40,2013-03-25 03:53:00
11:53 PM,30.0,24.1,79,30.27,10.0,NNE,6.9,-,N/A,,Overcast,20,2013-03-25 04:53:00